Regional Weather Roundup
Issued by NWS Memphis, TN

Home | Current Version | Previous Version | Text Only | Print | Product List | Glossary On
Versions: 1 2 3 4 5 6 7 8 9 10 11 12 13 14 15 16 17 18 19 20 21 22 23 24 25 26 27 28 29 30 31 32 33 34 35 36 37 38 39 40 41 42 43 44 45 46 47 48 49 50
000
ASUS44 KMEG 231500
RWRMEG
MEMPHIS CWA HOURLY WEATHER ROUNDUP
NATIONAL WEATHER SERVICE MEMPHIS TN
1000 AM CDT FRI JUN 23 2017

...WEST TENNESSEE...

CITY           SKY/WX    TMP DP  RH WIND       PRES   REMARKS
MEMPHIS INTL   LGT RAIN  74  74 100 SW22G41   29.70R
NWS MEMPHIS      N/A     74 N/A N/A MISG        N/A
JACKSON        RAIN      75  74  96 S15G24    29.67F FOG


...EASTERN ARKANSAS...

CITY           SKY/WX    TMP DP  RH WIND       PRES   REMARKS
JONESBORO      CLOUDY    76  75  97 NW6       29.66R
WEST MEMPHIS   LGT RAIN  75  75 100 W12G22    29.68R
BATESVILLE     CLOUDY    77  75  94 W6        29.73R
WALNUT RIDGE   CLOUDY    77  73  88 N9        29.68R
BLYTHEVILLE    LGT RAIN  76  75  97 W7        29.62R
SEARCY         CLOUDY    77  77 100 VRB5      29.75R
STUTTGART      CLOUDY    79  66  65 SW14      29.77R
PINE BLUFF     CLOUDY    77  74  90 S13       29.79R
MONTICELLO     CLOUDY    75  72  90 SW14G23   29.82R


...NORTH MISSISSIPPI...

CITY           SKY/WX    TMP DP  RH WIND       PRES   REMARKS
TUPELO         LGT RAIN  79  73  82 S16G28    29.80F
OLIVE BRANCH   RAIN     N/A N/A N/A SW14G23   29.70R FOG
TUNICA         RAIN      72  72 100 SW21      29.75R
CLARKSDALE       N/A     75  75 100 SW17G26   29.77R FOG
GREENWOOD      RAIN      76  75  97 SW14G23   29.82R FOG
COLUMBUS       MOSUNNY   82  79  90 S17G24    29.84F HX  92
STARKVILLE     PTSUNNY   79  73  83 S16G23    29.85F
GOLDEN TRIANGL CLOUDY    81  72  74 S16       29.82F


...SOUTHEAST MISSOURI...

CITY           SKY/WX    TMP DP  RH WIND       PRES   REMARKS
KENNETT        DRIZZLE   75  75 100 N7        29.63R
MALDEN         CLOUDY    77  73  88 NE5       29.68F
WEST PLAINS    CLOUDY    82  72  71 N10       29.76F
POPLAR BLUFF   CLOUDY    77  75  93 NE6       29.69S
CAPE GIRARDEAU LGT RAIN  75  72  90 CALM      29.71S


...NORTHWEST ALABAMA...

CITY           SKY/WX    TMP DP  RH WIND       PRES   REMARKS
MUSCLE SHOALS  CLOUDY    83  72  69 S16G25    29.84F


...MIDDLE TENNESSEE...

CITY           SKY/WX    TMP DP  RH WIND       PRES   REMARKS
NASHVILLE      PTSUNNY   84  71  65 S13G25    29.83F
CLARKSVILLE    PTSUNNY   80  69  69 S13G23    29.77F


...WESTERN KENTUCKY...

CITY           SKY/WX    TMP DP  RH WIND       PRES   REMARKS
PADUCAH        HVY RAIN  75  72  90 S5        29.71S FOG
FORT CAMPBELL  CLOUDY    79  70  73 S13G20    29.76F


...CENTRAL ARKANSAS...

CITY           SKY/WX    TMP DP  RH WIND       PRES   REMARKS
LITTLE ROCK    CLOUDY    82  77  84 W13       29.77R HX  90


SKY/WX REPORTED AS FAIR MEANS FEW OR NO CLOUDS BELOW
12 THOUSAND FEET.





USA.gov is the U.S. government's official web portal to all federal, state and local government web resources and services.